Content
SEND FEEDBACK

Daily
Averages
Monthly
Summary
France

LE HAVRE, FRANCE


Home > Europe > France
Elevation: 338 feet     Latitude: 49 31N     Longitude: 000 04E

WEATHER
 
SELECT A DAY
Number of Records: 175,479;   Date Range: 3/4/97 - 7/8/14
 
SHARE

PRINT THIS DATA

[ ← Previous Day ]
WEATHER ALMANAC - APRIL 21, 2013
[ Next Day → ]
[ °C ]   °F
Weather ElementAverageHighLow
Temperature41.9 °F46.4 °F (11:00 am)33.8 °F (6:00 am)
Dewpoint36.9 °F41 °F (10:00 am)30.2 °F (6:00 am)
Humidity82.7 %93 % (1:30 am)71 % (1:30 pm)
Barometer30.19 in30.33 in (12:30 am)30.12 in (4:30 pm)
Wind Speed5.6 mph10.4 mph (12:30 am)
Weather ElementAverage
Visibility5.8 mi
Wind DirectionSW (226.6 °)

Weather ElementTotal
Precipitation---
Heating Degree Days24.9 (Base 65)
Averaged from 47 records on April 21, 2013
WEATHER CONDITIONS BREAKOUT
WIND DIRECTION BREAKOUT
WEATHER BY HOUR - APRIL 21, 2013
[ °C ]   °F
Local TimeTemperatureDewpointHumidityBarometerVisibilityWind DirectionWind SpeedGust SpeedPrecipitationEventsConditions
12:30 AM41.0 °F37.4 °F87 %30.33 in6.2 miENE (60°)10.4 mph
1:00 AM41.0 °F37.4 °F87 %30.33 in6.2 miENE (60°)9.2 mph
1:30 AM39.2 °F37.4 °F93 %30.30 in6.2 miENE (60°)8.1 mph
2:00 AM39.2 °F37.4 °F93 %30.30 in6.2 miENE (70°)5.8 mph
2:30 AM39.2 °F37.4 °F93 %30.30 in6.2 miENE (70°)6.9 mph
3:00 AM37.4 °F35.6 °F93 %30.27 in6.2 miENE (60°)5.8 mph
3:30 AM39.2 °F35.6 °F87 %30.27 in6.2 miENE (70°)5.8 mph
4:00 AM37.4 °F35.6 °F93 %30.27 in6.2 miENE (70°)5.8 mph
4:30 AM37.4 °F35.6 °F93 %30.27 in6.2 miEast (90°)2.3 mph
5:00 AM37.4 °F35.6 °F93 %30.24 in6.2 miCalm
5:30 AM35.6 °F32.0 °F87 %30.24 in6.2 miCalm
6:00 AM33.8 °F30.2 °F87 %30.24 in5.6 miWSW (250°)2.3 mph
6:30 AM37.4 °F35.6 °F93 %30.24 in5.6 miNorth (10°)2.3 mph
7:00 AM37.4 °F35.6 °F93 %30.21 in0.6 miCalmFogFog
7:30 AM33.8 °F32.0 °F93 %30.24 in0.5 miCalmFogFog
8:00 AM39.2 °F37.4 °F93 %30.21 in6.2 miCalm
8:30 AM41.0 °F39.2 °F93 %30.24 in3.7 miNNW (330°)5.8 mphMostly Cloudy
9:00 AM41.0 °F39.2 °F93 %30.21 in5.0 miNorth (350°)5.8 mphMostly Cloudy
9:30 AM42.8 °F39.2 °F87 %30.21 in6.2 miNorth (350°)6.9 mphPartly Cloudy
10:00 AM44.6 °F41.0 °F87 %30.21 in5.0 miNNW (340°)10.4 mphMostly Cloudy
10:30 AM44.6 °F39.2 °F81 %30.21 in6.2 miNNW (340°)5.8 mphScattered Clouds
11:00 AM46.4 °F39.2 °F76 %30.21 in6.2 miNNW (340°)5.8 mphScattered Clouds
11:30 AM44.6 °F39.2 °F81 %30.21 in6.2 miNNW (330°)5.8 mphScattered Clouds
12:00 PM44.6 °F37.4 °F76 %30.21 in6.2 miNW (320°)5.8 mphMostly Cloudy
12:30 PM46.4 °F39.2 °F76 %30.21 in6.2 miNW (320°)6.9 mphScattered Clouds
1:00 PM46.4 °F39.2 °F76 %30.18 in6.2 miWNW (300°)6.9 mphMostly Cloudy
1:30 PM46.4 °F37.4 °F71 %30.18 in6.2 miWNW (300°)5.8 mphMostly Cloudy
2:00 PM46.4 °F39.2 °F76 %30.18 in6.2 miWNW (290°)6.9 mphPartly Cloudy
2:30 PM46.4 °F37.4 °F71 %30.18 in6.2 miWNW (300°)8.1 mphMostly Cloudy
3:00 PM46.4 °F37.4 °F71 %30.15 in6.2 miWNW (290°)6.9 mphPartly Cloudy
3:30 PM46.4 °F37.4 °F71 %30.15 in6.2 miWest (280°)8.1 mphScattered Clouds
4:00 PM46.4 °F37.4 °F71 %30.15 in6.2 miWNW (300°)9.2 mph
4:30 PM44.6 °F37.4 °F76 %30.12 in6.2 miWNW (300°)8.1 mph
5:00 PM44.6 °F37.4 °F76 %30.12 in6.2 miWNW (300°)10.4 mph
5:30 PM44.6 °F35.6 °F71 %30.12 in6.2 miNW (320°)6.9 mph
6:00 PM44.6 °F35.6 °F71 %30.12 in6.2 miNNW (330°)8.1 mph
6:30 PM44.6 °F37.4 °F76 %30.12 in6.2 miNNW (330°)6.9 mph
7:00 PM42.8 °F35.6 °F76 %30.12 in6.2 miNNW (340°)6.9 mph
7:30 PM42.8 °F35.6 °F76 %30.12 in6.2 miNNW (340°)5.8 mph
8:00 PM42.8 °F37.4 °F81 %30.12 in6.2 miNNW (330°)6.9 mph
8:30 PM42.8 °F37.4 °F81 %30.12 in6.2 miNNW (340°)6.9 mph
9:00 PM42.8 °F37.4 °F81 %30.12 in6.2 miNNW (330°)4.6 mph
9:30 PM41.0 °F35.6 °F81 %30.12 in6.2 miNW (320°)4.6 mph
10:00 PM41.0 °F35.6 °F81 %30.12 in6.2 miNorth (350°)2.3 mph
10:30 PM41.0 °F35.6 °F81 %30.12 in6.2 miWNW (290°)2.3 mph
11:00 PM41.0 °F35.6 °F81 %30.12 in6.2 miWest (260°)2.3 mph
11:30 PM42.8 °F37.4 °F81 %30.12 in6.2 miSW (220°)2.3 mph
Hourly data recorded from LFOH, located miles away from Le Havre, France







STORIES FROM OUR PARTNERS